User: anonymous   Login
Location: Austin, TX
(30.3000°N, 97.7500°W)
Time: 12:20:21
(UTC-05:00)
Language:

Cosmos 2082 Rocket - Orbit

View from above orbital plane
View from above orbital plane
View from above satellite
View from above satellite

Ground track
Ground track

The orbit data is extracted from the following two-line orbital elements,

1 20625U 90046B   15086.16993691  .00000270  00000-0  16538-3 0  9993
2 20625 070.9996 055.4303 0016544 263.2684 177.7175 14.14570043282868
Epoch (UTC): 27 March 2015 04:04:42
Eccentricity: 0.0016544
inclination: 70.9996°
perigee height: 832 km
apogee height: 856 km
right ascension of ascending node: 55.4303°
argument of perigee: 263.2684°
revolutions per day: 14.14570043
mean anomaly at epoch: 177.7175°
orbit number at epoch: 28286

The dashed part of the orbit path shows where the satellite is in the earth's shadow,  

DLR